[[{"header":{"parameterUnit":"m.s-1","parameterCategory":1,"la1":30.2991,"la2":30.254,"lo1":-89.0895,"lo2":-89.0444,"dy":0.0017,"dx":0.0017,"nx":28,"ny":28,"refTime":"2025-08-29T09:00:00:Z","depth":0,"parameterNumber":2,"parameterNumberName":"U-component_of_WINDS"},"data":[0,0,0,0,0,0,0,0,0,0,0,0,0,0,0,0,0,0,0,0,0,0,0,0,0,0,0,0,0,0,0,0,0,0,0,0,0,0,0,0,0,0,0,0,0,0,0,0,0,0,0,0,0,0,0,0,0,0,-1.7822,-1.7822,0,-1.7832,-1.7833,-1.7833,-1.7757,-1.7755,-1.7752,-1.775,-1.7763,-1.7765,-1.7768,0,0,0,0,0,0,0,0,0,0,0,0,0,-1.7738,-1.774,-1.7822,-1.7822,-1.7822,-1.7832,-1.7833,-1.7833,-1.7757,-1.7754,-1.7752,-1.7749,-1.7762,-1.7765,-1.7768,0,0,0,0,0,0,0,0,0,0,0,0,0,-1.7764,-1.7741,-1.7822,-1.7786,-1.7783,-1.7832,-1.7833,-1.7833,-1.7758,-1.7754,-1.7751,-1.7748,-1.7761,-1.7765,-1.7768,-1.7854,0,0,-1.7779,-1.778,0,0,0,0,0,0,0,0,-1.7763,-1.7767,-1.7791,-1.7788,-1.7785,-1.779,-1.7807,-1.784,-1.7758,-1.7767,-1.775,-1.7747,-1.7775,-1.7777,-1.7786,-1.7854,-1.7855,-1.7779,-1.7781,-1.7783,-1.7784,0,0,0,0,0,0,0,-1.7761,-1.7767,-1.7826,-1.7791,-1.7788,-1.7769,-1.777,-1.7813,-1.7789,-1.7766,-1.7761,-1.7763,-1.7772,-1.7783,-1.7786,-1.7855,-1.7779,-1.7782,-1.7784,-1.7786,-1.7993,-1.7996,0,0,0,0,0,0,-1.7764,-1.7766,-1.7826,-1.7827,-1.7766,-1.7773,-1.7774,-1.7792,-1.7788,-1.7784,-1.7766,-1.7759,-1.7778,-1.7782,-1.7786,-1.7884,-1.7783,-1.7786,-1.7788,-1.7989,-1.7993,-1.7997,0,0,0,0,0,0,-1.7762,-1.777,-1.7825,-1.7795,-1.78,-1.7778,-1.7799,-1.7794,-1.7804,-1.7788,-1.7783,-1.7781,-1.7776,-1.7781,-1.7837,-1.7884,-1.7787,-1.7791,-1.7985,-1.7991,-1.7995,-1.8084,0,0,0,0,0,0,-1.776,-1.777,-1.7802,-1.7796,-1.7802,-1.7877,-1.7802,-1.7796,-1.781,-1.7802,-1.78,-1.7797,-1.7774,-1.7832,-1.784,-1.7887,-1.7793,-1.7981,-1.7988,-1.7994,-1.8077,-1.8091,-1.8104,0,0,0,0,0,-1.7758,-1.7827,-1.7804,-1.7812,-1.7842,-1.7879,-1.7883,-1.7854,-1.7814,-1.7846,-1.7835,-1.7797,-1.7878,-1.7838,-1.7847,-1.7896,-1.7978,-1.7986,-1.7993,-1.807,-1.8088,-1.8104,0,0,0,0,0,0,-1.7841,-1.7826,-1.78,-1.787,-1.7876,-1.7866,-1.7906,-1.7874,-1.7893,-1.7885,-1.7848,-1.7849,-1.7911,-1.7909,-1.7866,-1.7977,-1.7921,-1.793,-1.7976,-1.7993,-1.8007,-1.8006,-1.7796,0,0,0,0,0,-1.7867,-1.7899,-1.7884,-1.7947,-1.7952,-1.7929,-1.7944,-1.7921,-1.7926,-1.7929,-1.7923,-1.793,-1.7956,-1.7975,-1.7999,-1.8076,-1.8074,-1.8114,-1.8127,-1.8138,-1.8147,-1.8187,-1.8204,-1.8022,-1.8022,-1.8022,0,0,-1.7923,-1.7918,-1.794,-1.7964,-1.7966,-1.7999,-1.7931,-1.797,-1.7994,-1.7935,-1.7987,-1.7983,-1.7988,-1.8055,-1.8084,-1.8055,-1.8197,-1.8148,-1.8157,-1.816,-1.8196,-1.8214,-1.8229,-1.8028,-1.8027,-1.8026,0,0,-1.804,-1.804,-1.8091,-1.8095,-1.8099,-1.8083,-1.8095,-1.809,-1.8085,-1.8136,-1.8092,-1.8121,-1.8168,-1.8173,-1.8182,-1.83,-1.8265,-1.8309,-1.838,-1.8419,-1.8433,-1.8446,-1.8487,-1.8502,-1.8318,-1.8318,-1.8318,0,-1.8108,-1.8156,-1.8123,-1.8163,-1.8175,-1.8122,-1.8173,-1.8179,-1.8191,-1.82,-1.8167,-1.8224,-1.8224,-1.8291,-1.8319,-1.8329,-1.8342,-1.8309,-1.8434,-1.8446,-1.8457,-1.8496,-1.8512,-1.8323,-1.8323,-1.8322,-1.8322,0,-1.8239,-1.8273,-1.8314,-1.8325,-1.8341,-1.8388,-1.8362,-1.8382,-1.8358,-1.8345,-1.8398,-1.8396,-1.8418,-1.8432,-1.8409,-1.8495,-1.8477,-1.844,-1.8382,-1.848,-1.8516,-1.8531,-1.8331,-1.8329,-1.8327,-1.8326,0,0,-1.8409,-1.8401,-1.8416,-1.842,-1.842,-1.8446,-1.849,-1.851,-1.8528,-1.8538,-1.8573,-1.8614,-1.8579,-1.8589,-1.8566,-1.86,-1.8692,-1.8559,-1.8558,-1.8583,-1.8786,-1.8813,-1.8831,-1.867,-1.8672,-1.8674,-1.8785,0,-1.8522,-1.8596,-1.8567,-1.8643,-1.8673,-1.8623,-1.8661,-1.8665,-1.8654,-1.8679,-1.8667,-1.8696,-1.8648,-1.8654,-1.8685,-1.8675,-1.8733,-1.8666,-1.8702,-1.8704,-1.8701,-1.885,-1.8879,-1.8984,-1.8799,-1.8801,-1.8803,0,-1.8665,-1.8679,-1.8758,-1.8751,-1.8762,-1.8797,-1.8812,-1.8837,-1.884,-1.883,-1.8841,-1.881,-1.8852,-1.8795,-1.8852,-1.8808,-1.8821,-1.8818,-1.8821,-1.8823,-1.8759,-1.8855,-1.9017,-1.9032,-1.8825,-1.8823,-1.8822,0,-1.878,-1.8819,-1.887,-1.8875,-1.8869,-1.8894,-1.8893,-1.8893,-1.8907,-1.8921,-1.8929,-1.8949,-1.8959,-1.8975,-1.895,-1.8911,-1.9011,-1.8952,-1.9003,-1.9004,-1.9026,-1.9025,-1.9191,-1.9036,-1.9036,-1.9036,-1.9035,0,-1.8909,-1.8959,-1.8922,-1.8953,-1.9008,-1.8974,-1.9028,-1.9022,-1.9022,-1.9052,-1.901,-1.9039,-1.9004,-1.903,-1.9011,-1.9061,-1.9066,-1.9059,-1.9053,-1.9062,-1.9063,-1.9069,-1.9061,-1.904,-1.9039,-1.9038,-1.9037,0,-1.9047,-1.9024,-1.9076,-1.9066,-1.9064,-1.9104,-1.9095,-1.9124,-1.911,-1.9148,-1.9155,-1.9133,-1.9161,-1.9137,-1.9165,-1.9152,-1.9218,-1.9202,-1.9216,-1.9212,-1.9264,-1.9259,-1.944,-1.9462,-1.9294,-1.9295,-1.9297,0,-1.913,-1.9167,-1.916,-1.9176,-1.9177,-1.9204,-1.9217,-1.9185,-1.9201,-1.9207,-1.9235,-1.9259,-1.9276,-1.9323,-1.9309,-1.933,-1.9314,-1.9376,-1.9317,-1.9324,-1.9313,-1.9311,-1.9314,-1.9388,-1.939,-1.9391,-1.9393,0,-1.9281,-1.9267,-1.9287,-1.9304,-1.932,-1.9332,-1.934,-1.9356,-1.9323,-1.9343,-1.937,-1.9383,-1.941,-1.9434,-1.945,-1.9449,-1.9416,-1.9411,-1.9424,-1.9433,-1.9439,-1.9436,-1.9248,-1.9407,-1.9406,-1.9405,-1.9404,-1.9403,-1.9393,-1.9423,-1.9422,-1.9445,-1.9448,-1.9456,-1.9482,-1.9471,-1.9493,-1.9511,-1.9491,-1.9524,-1.9526,-1.9543,-1.9546,-1.9571,-1.9546,-1.9565,-1.9569,-1.9574,-1.9581,-1.9436,-1.9574,-1.9574,-1.9573,-1.9573,-1.9573,0,-1.954,-1.9537,-1.9559,-1.9571,-1.9589,-1.9555,-1.9562,-1.958,-1.9609,-1.9613,-1.963,-1.9661,-1.9684,-1.9672,-1.9692,-1.9714,-1.97,-1.9721,-1.9718,-1.9718,-1.9604,-1.959,-1.9732,-1.9732,-1.9732,-1.9732,-1.9732,-1.9732,-1.9619,-1.9667,-1.9653,-1.9702,-1.9698,-1.9729,-1.9736,-1.9743,-1.9746,-1.9782,-1.98,-1.9792,-1.9789,-1.9808,-1.9828,-1.9823,-1.9832,-1.9859,-1.9849,-1.9742,-1.9727,-1.9712,-1.9698,-1.9861,-1.9862,-1.9962,-1.9963,-1.9963]},{"header":{"parameterUnit":"m.s-1","parameterCategory":1,"la1":30.2991,"la2":30.254,"lo1":-89.0895,"lo2":-89.0444,"dy":0.0017,"dx":0.0017,"nx":28,"ny":28,"refTime":"2025-08-29T09:00:00:Z","depth":0,"parameterNumber":3,"parameterNumberName":"V-component_of_WINDS"},"data":[0,0,0,0,0,0,0,0,0,0,0,0,0,0,0,0,0,0,0,0,0,0,0,0,0,0,0,0,0,0,0,0,0,0,0,0,0,0,0,0,0,0,0,0,0,0,0,0,0,0,0,0,0,0,0,0,0,0,-3.6675,-3.6676,0,-3.6747,-3.6747,-3.6748,-3.6713,-3.6711,-3.6709,-3.6707,-3.6777,-3.6781,-3.6784,0,0,0,0,0,0,0,0,0,0,0,0,0,-3.6503,-3.6506,-3.6675,-3.6676,-3.6677,-3.6746,-3.6747,-3.6748,-3.6713,-3.6711,-3.6709,-3.6707,-3.6776,-3.678,-3.6785,0,0,0,0,0,0,0,0,0,0,0,0,0,-3.6576,-3.6507,-3.6675,-3.6668,-3.6668,-3.6746,-3.6747,-3.6749,-3.6714,-3.6711,-3.6708,-3.6706,-3.6775,-3.678,-3.6785,-3.6874,0,0,-3.6802,-3.6804,0,0,0,0,0,0,0,0,-3.6572,-3.6583,-3.6668,-3.6668,-3.6668,-3.6718,-3.6712,-3.679,-3.6714,-3.6696,-3.6707,-3.6704,-3.676,-3.6766,-3.6785,-3.6877,-3.688,-3.6802,-3.6805,-3.6808,-3.6809,0,0,0,0,0,0,0,-3.6567,-3.6579,-3.6703,-3.6669,-3.6669,-3.6659,-3.6667,-3.6727,-3.6742,-3.6697,-3.6695,-3.6704,-3.6759,-3.678,-3.6787,-3.6881,-3.6802,-3.6807,-3.681,-3.6812,-3.7047,-3.705,0,0,0,0,0,0,-3.6563,-3.6575,-3.6701,-3.6705,-3.6613,-3.6665,-3.6673,-3.6705,-3.6742,-3.6745,-3.6707,-3.6702,-3.6773,-3.6781,-3.6789,-3.6894,-3.6808,-3.6813,-3.6816,-3.7044,-3.7048,-3.7051,0,0,0,0,0,0,-3.6559,-3.6574,-3.6698,-3.664,-3.6655,-3.6671,-3.6707,-3.6708,-3.6729,-3.6749,-3.6751,-3.6726,-3.6771,-3.6782,-3.6853,-3.6896,-3.6815,-3.682,-3.7041,-3.7045,-3.7049,-3.7106,0,0,0,0,0,0,-3.6555,-3.6573,-3.6608,-3.6641,-3.6658,-3.6762,-3.6709,-3.6711,-3.6739,-3.6734,-3.6767,-3.677,-3.6769,-3.6845,-3.6858,-3.6902,-3.6824,-3.7037,-3.7043,-3.7048,-3.71,-3.7111,-3.7121,0,0,0,0,0,-3.6549,-3.6621,-3.661,-3.6626,-3.6702,-3.6765,-3.6774,-3.6773,-3.6742,-3.6777,-3.6789,-3.6769,-3.6889,-3.6853,-3.6867,-3.6913,-3.7034,-3.7041,-3.7048,-3.7095,-3.7109,-3.7121,0,0,0,0,0,0,-3.6592,-3.6625,-3.6614,-3.6699,-3.6729,-3.6759,-3.6802,-3.6788,-3.6827,-3.6821,-3.6817,-3.6825,-3.6898,-3.6913,-3.6871,-3.7,-3.6957,-3.6967,-3.6988,-3.7001,-3.7012,-3.7006,-3.6829,0,0,0,0,0,-3.6612,-3.6661,-3.6686,-3.6759,-3.6775,-3.6786,-3.6813,-3.681,-3.6841,-3.6853,-3.6871,-3.69,-3.6945,-3.6974,-3.7016,-3.7102,-3.7108,-3.7141,-3.7151,-3.716,-3.7168,-3.7213,-3.7228,-3.7073,-3.7073,-3.7073,0,0,-3.6652,-3.6676,-3.6708,-3.6768,-3.6792,-3.6841,-3.6797,-3.6852,-3.6888,-3.6861,-3.6929,-3.6943,-3.6976,-3.7055,-3.709,-3.7069,-3.7213,-3.7169,-3.7176,-3.7179,-3.7222,-3.7237,-3.725,-3.7078,-3.7077,-3.7076,0,0,-3.6751,-3.6776,-3.6838,-3.6862,-3.6898,-3.6905,-3.692,-3.6951,-3.696,-3.7029,-3.7009,-3.7052,-3.7129,-3.7152,-3.7175,-3.7282,-3.7264,-3.7296,-3.7351,-3.7395,-3.7408,-3.7418,-3.7455,-3.7469,-3.7304,-3.7305,-3.7305,0,-3.6797,-3.6872,-3.6871,-3.6928,-3.6954,-3.6933,-3.6995,-3.7018,-3.7066,-3.7084,-3.706,-3.7156,-3.7176,-3.7259,-3.7286,-3.7305,-3.732,-3.7292,-3.7406,-3.7417,-3.7427,-3.7462,-3.7476,-3.7308,-3.7308,-3.7307,-3.7307,0,-3.6926,-3.6978,-3.7024,-3.7072,-3.7103,-3.7162,-3.7169,-3.7201,-3.7195,-3.7203,-3.7273,-3.7297,-3.7343,-3.7363,-3.7357,-3.7445,-3.743,-3.7407,-3.7363,-3.7445,-3.7478,-3.7492,-3.7313,-3.7312,-3.7311,-3.731,0,0,-3.7054,-3.71,-3.7117,-3.7138,-3.7176,-3.7215,-3.7273,-3.7319,-3.7346,-3.7379,-3.7425,-3.7491,-3.7469,-3.7494,-3.7491,-3.7529,-3.7611,-3.75,-3.7501,-3.7519,-3.7708,-3.7725,-3.7741,-3.76,-3.7603,-3.7605,-3.7705,0,-3.7155,-3.7257,-3.7257,-3.735,-3.7398,-3.7378,-3.7427,-3.7455,-3.7465,-3.7505,-3.7515,-3.7561,-3.753,-3.7544,-3.7582,-3.7594,-3.7649,-3.7586,-3.7642,-3.7644,-3.7633,-3.7758,-3.7777,-3.787,-3.7718,-3.772,-3.7722,0,-3.7287,-3.7325,-3.7423,-3.7453,-3.7473,-3.7518,-3.7559,-3.7599,-3.7629,-3.7633,-3.7662,-3.7652,-3.7708,-3.7664,-3.7741,-3.7698,-3.7721,-3.773,-3.7733,-3.7737,-3.7687,-3.7765,-3.79,-3.7914,-3.7742,-3.7741,-3.7739,0,-3.7369,-3.7445,-3.7513,-3.7532,-3.7569,-3.76,-3.7617,-3.7645,-3.7672,-3.7708,-3.7726,-3.7767,-3.779,-3.7822,-3.7823,-3.7791,-3.79,-3.7856,-3.7904,-3.7904,-3.7927,-3.7925,-3.8066,-3.7943,-3.7943,-3.7943,-3.7943,0,-3.7481,-3.7541,-3.755,-3.7592,-3.7659,-3.7658,-3.7723,-3.7737,-3.7762,-3.7805,-3.779,-3.783,-3.783,-3.7871,-3.7872,-3.7935,-3.7945,-3.7949,-3.7948,-3.795,-3.7949,-3.7964,-3.7957,-3.7947,-3.7946,-3.7945,-3.7945,0,-3.7584,-3.7592,-3.7665,-3.7695,-3.7703,-3.7751,-3.7775,-3.7814,-3.7822,-3.7877,-3.7889,-3.7902,-3.7949,-3.7954,-3.8008,-3.8009,-3.8084,-3.8077,-3.8074,-3.8072,-3.8119,-3.8114,-3.8274,-3.8294,-3.8159,-3.8161,-3.8162,0,-3.7654,-3.77,-3.7735,-3.7763,-3.7782,-3.7827,-3.7855,-3.7856,-3.7885,-3.7923,-3.7957,-3.8003,-3.8039,-3.8115,-3.8128,-3.8169,-3.8162,-3.8215,-3.8168,-3.8168,-3.8161,-3.8158,-3.8162,-3.8224,-3.8225,-3.8227,-3.8228,0,-3.7778,-3.778,-3.7821,-3.7864,-3.7898,-3.7932,-3.7963,-3.7987,-3.7991,-3.8024,-3.8073,-3.8101,-3.8157,-3.8202,-3.8242,-3.8258,-3.8243,-3.8243,-3.8255,-3.8257,-3.8253,-3.8254,-3.8098,-3.8239,-3.8237,-3.8237,-3.8236,-3.8236,-3.7865,-3.7905,-3.7935,-3.7982,-3.8006,-3.8035,-3.8073,-3.8086,-3.8127,-3.8173,-3.8171,-3.8224,-3.8251,-3.8304,-3.8323,-3.8363,-3.8345,-3.8364,-3.8369,-3.8373,-3.8378,-3.8247,-3.8371,-3.837,-3.837,-3.837,-3.837,0,-3.7987,-3.8006,-3.8049,-3.8093,-3.8129,-3.8114,-3.8147,-3.8178,-3.8225,-3.8253,-3.829,-3.8345,-3.8388,-3.8405,-3.8447,-3.8476,-3.847,-3.8486,-3.8484,-3.8487,-3.8392,-3.8376,-3.849,-3.849,-3.849,-3.849,-3.849,-3.849,-3.8055,-3.812,-3.8126,-3.8203,-3.822,-3.8273,-3.8294,-3.832,-3.8342,-3.8405,-3.8441,-3.8452,-3.8475,-3.8518,-3.8557,-3.856,-3.8576,-3.8595,-3.8596,-3.8506,-3.8494,-3.8482,-3.8467,-3.8599,-3.8599,-3.8687,-3.8688,-3.8689]}]]